Wind_Speed
39 41 41 39 36 33 34 34 31 30 30 28 29 29 29 29 28 28 28 28 29 29 29 28 28 27 26 26 26 26 26 26 27 28 28 28 28 28 29 29 29 30 30 30 30 31 31 32 32 31 31 31 33 36 38 38 36 37 39 37 36 36 36 36 36 36 36 36 36 35 36 37 38 38 39 39 40 40 39 39 38 38 38 37 36
37 39 41 41 37 31 32 33 30 29 29 28 28 28 28 28 27 27 28 28 28 28 29 28 28 28 27 26 25 26 26 27 27 28 28 28 28 28 28 28 28 30 31 31 31 32 33 33 33 33 34 34 35 36 36 36 34 34 39 40 40 40 40 39 38 37 37 38 38 37 36 37 37 37 36 37 38 39 40 41 41 41 40 40 39
35 37 39 41 38 31 31 32 30 29 29 27 28 28 28 28 27 27 27 27 27 28 28 28 28 28 27 27 25 25 26 26 27 28 28 28 27 27 27 27 28 28 29 31 32 32 33 34 35 35 36 36 37 38 38 38 35 33 36 40 40 41 42 43 42 41 40 41 41 40 38 38 37 36 35 36 37 38 39 40 42 43 43 42 41
33 34 37 40 37 32 31 31 31 29 28 28 28 29 28 27 27 26 26 27 27 27 28 28 27 27 27 27 26 25 26 26 26 27 27 27 27 27 27 27 28 28 28 30 31 32 33 34 35 36 37 37 39 41 42 42 40 38 38 39 40 40 41 43 45 47 47 46 44 42 40 39 38 38 37 36 37 38 39 39 41 43 43 44 44
31 31 35 38 35 32 30 30 32 29 28 28 29 29 28 28 27 26 26 27 27 27 27 27 27 27 27 27 27 26 26 26 26 27 27 27 27 27 27 27 28 28 28 28 30 31 32 33 34 35 36 38 39 41 43 43 43 42 41 42 42 40 40 41 44 47 49 50 49 46 43 40 39 41 41 39 38 39 39 39 40 42 43 44 44
29 29 33 34 33 33 30 29 31 30 29 29 29 29 29 28 28 27 27 26 27 27 27 27 27 27 27 27 27 27 26 26 26 27 27 28 28 28 28 28 28 28 28 28 28 30 31 32 33 35 36 37 39 40 42 43 44 44 43 43 43 42 41 42 43 43 46 50 51 50 48 45 44 45 45 42 41 41 40 40 40 40 42 43 44
28 29 32 31 31 33 31 30 31 31 30 30 29 30 29 29 28 27 27 27 27 27 27 27 27 27 27 26 26 26 26 27 27 27 28 28 29 29 29 29 29 29 29 29 29 29 30 31 33 34 35 36 38 39 41 42 43 44 45 45 44 44 44 44 43 42 43 47 50 52 51 50 50 49 48 46 45 44 43 43 42 41 41 42 43
27 29 32 31 30 32 32 31 30 31 31 30 30 30 29 29 28 28 28 27 27 27 27 27 26 26 26 25 26 26 26 27 27 27 28 28 29 29 30 30 31 31 30 30 30 30 30 31 32 34 34 36 37 38 40 41 42 43 45 46 46 46 46 45 44 44 44 44 47 51 53 53 53 51 50 49 48 47 47 46 45 44 43 42 43
27 28 31 32 30 30 32 32 31 31 31 30 30 30 30 29 29 29 28 27 27 27 26 26 26 26 26 26 26 26 27 27 27 28 28 28 29 30 30 30 31 32 32 32 31 31 31 31 32 33 34 36 36 38 39 40 42 43 45 46 47 47 47 47 47 47 46 45 46 49 51 54 55 53 51 50 49 48 49 50 49 48 47 46 44
28 27 29 32 30 29 31 31 31 31 31 31 31 30 30 30 30 30 29 27 27 26 26 26 26 26 26 27 27 27 27 27 27 28 28 28 29 29 30 30 31 31 32 32 33 33 32 32 33 33 34 36 37 38 39 40 41 42 44 46 47 48 48 49 48 49 49 48 48 49 49 52 55 56 54 54 53 49 46 48 50 50 50 50 49
28 27 28 30 30 29 29 30 31 30 30 31 30 29 29 29 30 30 29 27 26 27 27 27 27 28 28 28 28 28 28 28 28 28 28 28 28 29 29 29 30 31 31 32 33 34 34 34 34 34 35 36 37 38 39 40 41 42 44 46 47 48 49 50 49 50 51 51 51 51 52 51 53 55 56 58 60 57 51 48 47 49 50 51 52
27 27 27 28 28 28 28 29 30 30 30 30 30 29 29 29 29 29 29 27 26 27 27 27 28 28 28 29 29 28 28 28 28 28 29 29 29 29 29 29 30 30 31 31 32 33 34 35 36 36 36 36 37 38 40 41 41 43 44 46 47 48 50 51 51 51 52 53 53 54 54 53 54 54 54 56 58 59 58 54 49 49 50 50 51
29 29 29 28 26 26 27 28 29 29 29 30 30 29 30 30 29 29 29 28 27 27 28 27 27 28 28 28 29 29 29 29 29 29 29 30 31 31 31 31 31 31 31 31 32 33 34 35 36 37 38 38 38 39 40 41 42 43 44 46 48 49 50 51 52 52 53 54 55 55 55 56 56 55 55 55 55 56 56 54 53 53 53 52 50
30 31 33 32 27 26 28 29 28 28 29 30 30 30 30 30 30 30 30 29 28 28 28 28 27 28 28 28 29 29 29 30 30 30 30 31 32 33 33 34 34 34 33 33 33 33 34 35 35 36 38 39 40 40 41 42 43 44 45 46 48 49 50 52 52 53 53 55 56 56 57 57 58 58 57 57 57 57 55 53 54 55 56 55 52
32 32 34 36 32 29 30 32 30 29 29 31 30 30 30 30 30 31 30 30 29 28 29 29 29 28 29 29 30 30 30 31 31 32 32 33 34 34 35 36 36 37 36 36 36 36 36 36 36 37 37 39 40 41 42 43 44 45 45 46 48 50 51 52 53 54 54 55 56 57 57 58 59 59 59 59 59 58 57 56 55 54 56 56 52
34 33 33 37 36 31 30 32 33 31 31 31 31 30 31 31 31 31 31 30 29 29 30 30 30 30 30 31 31 32 32 33 33 33 34 34 35 36 37 37 38 38 39 39 39 39 39 39 39 39 39 39 40 41 43 44 45 46 47 47 48 50 51 52 53 54 55 56 57 58 58 58 59 60 60 61 60 59 58 58 57 54 54 55 53
33 32 32 35 37 34 31 32 32 33 33 33 33 32 32 32 32 32 33 32 30 30 31 32 32 32 32 33 33 33 34 34 35 35 36 37 37 38 38 39 39 39 40 40 41 41 42 42 41 41 41 41 41 41 42 44 45 47 48 49 49 50 51 52 53 54 55 56 57 58 59 59 59 60 61 61 61 60 59 59 59 57 54 54 55
31 32 32 33 36 36 34 32 32 34 35 36 35 34 34 34 35 35 35 34 33 32 33 34 34 34 34 35 35 35 36 37 38 38 38 39 39 40 40 40 40 40 41 41 42 43 43 44 44 43 43 43 43 42 42 43 45 46 48 49 50 51 52 52 54 55 55 55 56 58 59 59 59 60 60 61 61 61 61 60 60 59 57 55 54
28 30 31 32 34 37 35 32 32 34 36 37 36 35 36 37 37 37 37 37 35 35 35 36 36 36 36 37 37 38 38 39 40 40 40 40 41 41 41 42 42 42 43 43 43 44 45 45 46 45 45 45 45 44 44 44 44 46 47 49 50 52 52 53 54 56 56 56 56 57 58 59 60 60 60 60 61 61 61 62 61 60 59 57 54
28 28 29 31 32 35 35 34 34 35 36 37 36 36 37 38 38 37 37 37 36 36 36 37 38 38 38 38 39 39 39 40 41 41 42 42 42 43 43 44 44 44 45 45 45 45 46 46 47 46 46 46 46 46 46 45 45 45 47 48 49 51 52 53 54 56 57 57 57 57 58 58 59 60 60 60 60 60 61 61 62 62 60 60 57
31 28 28 28 28 31 33 33 33 35 36 34 35 38 38 37 37 37 37 37 37 36 36 38 39 39 39 39 40 40 40 41 42 42 44 44 45 45 45 46 46 46 46 46 46 46 46 47 47 47 47 46 46 46 47 47 46 46 46 47 49 50 51 52 53 55 56 58 58 58 58 58 58 59 59 60 60 60 60 60 61 62 61 61 60
34 31 29 30 31 32 34 34 34 36 34 31 33 36 36 35 36 36 37 37 37 37 37 38 39 39 39 40 40 41 41 42 43 44 45 46 47 47 47 47 47 47 47 47 47 46 46 46 47 48 48 48 47 47 48 48 48 48 47 47 48 49 50 51 52 53 55 57 58 59 59 59 59 59 59 59 59 59 60 59 60 61 61 61 61
36 34 34 35 35 37 38 37 38 37 33 32 34 36 36 36 36 35 36 37 37 37 37 38 39 39 40 41 41 42 42 43 44 45 46 46 47 48 48 48 47 47 47 48 47 47 47 47 47 48 49 49 49 48 48 49 49 49 49 48 49 49 50 51 51 52 53 55 57 59 60 59 59 60 59 59 59 59 60 59 59 60 60 60 60
37 36 36 36 37 39 40 40 41 39 35 35 38 38 38 37 37 36 36 37 38 38 38 39 39 40 40 41 41 42 42 43 43 44 45 46 46 47 47 47 47 47 47 47 48 48 48 48 48 49 49 50 50 50 50 49 50 50 50 50 50 50 50 50 51 52 52 53 55 56 59 60 60 60 60 60 59 59 60 60 59 59 60 59 59
41 40 38 37 37 40 41 42 43 41 37 38 39 39 39 38 38 38 37 38 39 39 39 40 40 40 40 40 41 41 42 42 42 42 43 44 45 45 46 46 46 47 47 48 48 49 49 50 49 49 50 51 51 52 52 51 51 51 51 51 51 51 51 51 51 51 52 53 53 54 56 58 59 60 60 60 60 59 59 60 60 60 60 59 58
45 45 41 37 36 37 38 41 44 43 41 42 42 41 40 40 40 40 39 40 41 41 40 40 40 40 39 39 40 40 40 40 40 40 41 43 44 44 46 46 47 48 48 49 49 50 50 50 50 50 51 51 52 53 53 53 53 53 53 53 53 52 52 53 52 52 52 52 53 53 54 55 57 59 60 60 60 59 59 59 60 60 60 60 59
48 46 45 44 42 40 37 38 42 45 45 46 45 43 41 42 42 42 42 41 41 41 40 39 39 39 38 37 37 37 37 37 37 38 39 41 42 44 45 46 48 48 49 49 50 50 51 51 51 51 52 52 52 53 54 54 54 54 54 54 54 54 54 54 54 53 53 53 52 53 53 54 55 56 58 59 59 59 59 58 60 60 60 61 61
51 48 47 48 48 47 45 42 41 44 46 46 46 44 43 42 41 42 43 41 40 40 38 38 38 37 36 35 34 34 35 36 38 39 40 42 43 44 46 47 49 49 50 50 51 51 51 51 51 52 52 52 53 53 54 54 54 55 55 55 56 56 56 55 55 55 55 54 54 53 53 53 54 55 56 57 58 59 59 59 60 60 59 61 61
56 52 50 50 49 49 48 46 44 45 45 46 46 45 44 42 39 40 41 40 39 38 37 37 36 35 34 34 34 35 36 37 39 40 41 43 44 45 46 47 48 49 50 51 51 52 52 52 52 52 53 53 53 53 53 54 54 55 56 57 56 57 57 57 57 57 56 56 56 55 54 54 54 54 55 56 57 58 58 59 59 59 60 60 60
60 59 58 57 55 52 48 47 49 48 46 47 46 44 44 42 38 38 39 39 38 37 37 36 36 35 35 36 36 36 36 37 38 39 41 42 43 44 45 45 46 46 47 48 49 50 50 51 52 52 53 53 53 53 53 53 54 55 56 57 57 57 58 58 58 58 58 58 58 57 57 56 55 55 55 56 56 56 57 59 59 59 59 59 59
61 62 61 60 59 56 50 50 52 50 48 46 44 43 44 41 37 37 38 38 37 37 37 37 37 37 37 37 37 37 37 37 38 39 40 41 42 43 44 44 44 45 45 46 47 48 49 50 51 51 51 52 52 52 52 53 54 55 56 57 57 58 58 58 59 59 59 59 59 59 59 58 56 55 55 56 56 56 56 58 59 59 59 60 59
59 61 60 59 59 57 54 53 52 49 47 44 41 41 42 38 36 36 37 37 37 36 37 38 39 38 38 37 37 37 38 38 39 40 41 42 43 44 44 44 44 45 45 45 46 47 48 49 50 51 51 51 51 51 51 52 53 54 55 57 57 58 58 58 59 59 60 60 60 60 60 60 58 57 56 56 56 57 57 57 59 59 59 60 60
56 58 58 57 58 58 57 55 51 48 45 42 38 37 38 37 36 35 36 37 36 36 38 39 39 39 38 38 38 38 39 39 40 42 43 43 44 44 45 45 45 45 45 45 47 48 48 49 50 51 51 51 51 51 51 52 53 54 55 56 57 57 58 58 58 59 60 60 60 60 61 60 60 59 58 57 56 56 58 58 59 59 60 60 60
52 54 55 55 56 57 59 60 58 53 49 43 38 35 35 36 35 35 36 37 36 37 38 38 38 39 38 38 38 39 39 41 42 43 44 45 45 45 45 45 46 47 46 47 49 49 49 50 50 51 51 52 52 52 52 53 53 54 55 56 56 57 57 58 58 59 60 60 61 61 61 61 61 60 60 59 58 57 58 59 60 60 60 59 59
49 50 52 54 55 55 58 62 64 61 59 55 47 40 38 37 37 37 38 37 37 38 38 38 38 38 39 39 39 40 41 42 43 44 45 45 46 46 46 46 47 48 47 48 50 50 50 50 50 51 51 51 52 53 53 54 54 54 55 56 56 57 57 58 59 59 60 60 60 61 61 61 61 61 60 60 60 60 59 59 60 60 60 60 60
47 48 50 52 53 52 53 58 64 66 65 61 55 50 45 42 40 39 39 38 39 39 38 38 38 38 39 40 41 41 42 43 44 45 45 45 46 46 47 47 47 48 48 49 50 50 49 49 49 49 50 50 51 52 53 54 55 55 56 56 57 57 58 58 59 59 60 60 60 60 60 61 61 61 60 60 61 62 61 60 60 61 61 60 59
46 45 48 49 50 49 48 52 61 66 62 56 54 53 48 43 41 41 40 40 40 39 39 39 38 38 39 41 42 43 43 44 44 45 45 46 46 47 48 48 48 48 48 48 48 47 46 46 46 47 48 49 50 51 52 54 55 56 57 58 58 59 59 59 59 60 60 61 61 61 60 60 60 60 60 60 61 63 63 61 60 61 61 61 59
44 43 45 45 45 46 47 51 57 58 55 52 52 51 46 42 42 42 41 41 41 40 40 39 38 38 39 41 43 43 44 44 44 44 46 46 47 48 48 49 49 48 47 46 45 44 44 45 46 48 49 50 50 51 52 53 54 56 57 59 60 61 61 61 61 60 61 61 61 61 61 61 60 59 59 59 60 62 64 62 60 61 62 61 59
40 40 40 38 39 43 48 52 52 50 49 50 48 44 42 42 42 42 42 42 41 40 40 38 37 38 40 42 43 43 43 43 44 45 46 47 47 49 49 49 48 46 45 44 44 45 46 48 49 50 51 51 51 51 52 53 54 56 57 59 61 62 62 62 62 62 62 62 62 62 62 62 61 60 59 59 59 61 63 63 62 61 62 61 59
35 35 34 35 39 41 43 44 44 43 45 46 42 39 40 42 44 45 43 42 41 40 38 37 37 39 41 42 43 43 42 43 44 46 47 47 48 49 49 47 46 45 45 45 46 48 49 49 49 49 49 50 50 50 51 51 52 54 56 58 60 61 62 62 63 64 63 63 64 64 64 63 62 62 61 59 60 61 62 64 63 61 60 59 59
31 32 33 36 38 37 35 35 38 39 39 39 38 39 41 43 46 46 44 41 40 38 36 36 38 39 41 41 42 42 42 43 45 46 47 48 48 48 47 45 44 45 45 46 48 48 47 46 45 45 46 46 47 48 49 50 51 53 54 56 57 57 58 59 60 61 61 62 62 63 64 64 63 63 62 61 60 61 62 63 62 59 58 58 59
27 27 29 33 36 37 35 34 34 34 34 35 36 38 40 42 43 43 41 39 38 36 35 36 38 39 40 41 41 42 42 44 45 46 47 47 46 46 45 44 43 44 45 46 46 45 44 43 43 44 45 46 47 48 49 50 52 53 54 55 56 56 56 56 57 57 58 58 59 60 61 62 62 62 62 60 60 60 62 62 60 57 57 58 59
25 23 25 30 37 41 39 34 33 33 34 35 37 38 38 37 37 37 37 36 34 33 34 36 37 38 39 40 41 42 43 44 45 45 45 45 44 44 43 42 43 44 45 44 43 42 42 42 43 44 46 47 48 49 50 51 51 50 49 50 51 52 52 52 52 53 53 54 55 56 57 58 59 60 59 58 58 59 61 60 58 57 58 59 60
23 21 26 32 38 42 40 36 35 36 37 37 37 38 37 34 33 34 33 32 31 32 34 36 36 37 39 40 41 42 43 44 44 44 43 43 42 41 41 42 43 44 43 42 41 41 42 42 44 45 46 47 48 48 46 44 42 40 40 41 42 44 45 45 46 47 47 49 50 51 52 54 56 57 57 57 58 59 60 59 59 59 59 59 60
22 25 32 37 38 38 39 38 37 38 38 37 35 35 33 31 31 31 29 29 31 33 34 35 36 37 38 40 41 42 43 43 43 42 41 40 39 39 40 41 42 42 41 40 40 41 42 43 45 46 46 46 44 40 36 34 33 33 34 35 37 38 39 41 42 41 41 42 44 45 47 49 51 54 55 56 58 58 59 59 59 59 59 59 58
25 30 35 36 32 31 33 34 36 36 35 32 30 29 28 28 27 27 27 29 31 32 33 34 36 37 38 39 39 40 41 41 41 40 39 38 38 38 40 41 41 40 39 39 39 41 42 44 46 45 44 41 35 32 30 30 30 32 33 34 35 35 36 39 40 39 38 38 39 40 42 44 46 49 52 54 55 56 57 58 59 58 58 57 56
25 25 28 28 26 25 26 26 27 27 26 25 25 25 25 25 24 25 27 29 30 31 32 34 35 35 36 36 37 38 39 40 39 38 37 36 36 38 39 40 39 38 37 37 38 40 43 44 44 43 40 35 30 29 30 30 30 31 33 34 34 34 36 37 38 37 36 35 36 37 37 39 41 43 47 49 51 53 55 56 56 56 55 54 53
20 18 20 21 21 21 21 20 20 20 20 20 21 22 23 22 23 24 26 28 29 30 31 32 32 33 34 35 35 37 38 38 37 36 35 34 35 37 39 40 38 37 36 35 36 39 42 43 42 39 34 29 28 29 30 29 29 30 32 32 32 32 34 34 34 34 33 33 34 34 34 35 37 39 43 46 48 51 52 52 53 53 52 52 51
15 16 18 18 18 18 17 15 15 17 17 17 19 21 21 21 22 24 25 27 28 29 29 30 31 32 33 34 35 36 36 35 34 33 33 33 34 36 38 39 37 36 35 35 37 39 41 41 39 35 30 27 26 27 27 26 26 28 30 31 31 32 32 32 31 31 30 31 32 32 31 32 33 36 40 43 46 48 48 49 50 51 51 50 50
15 16 16 17 17 16 14 14 14 16 16 17 19 20 20 20 23 24 25 26 26 26 28 30 31 32 33 34 34 35 33 32 31 31 31 32 34 35 36 37 36 36 35 36 37 39 40 40 37 32 28 25 24 23 24 25 28 29 29 30 30 31 31 30 29 28 28 30 31 30 29 29 30 33 36 39 42 45 46 47 49 50 50 50 50
15 16 16 16 16 14 13 14 15 16 16 18 20 20 19 21 23 23 23 24 24 26 28 29 31 32 32 33 33 31 30 29 29 29 30 31 33 34 34 34 35 35 35 36 37 38 39 40 37 30 25 24 23 23 24 26 29 29 28 26 26 26 26 26 26 26 27 29 30 30 29 28 29 31 33 35 38 41 44 47 49 51 51 51 51
Wind_Direction
271 271 270 268 268 271 273 272 272 272 270 269 267 266 265 264 264 265 265 265 265 266 266 266 266 265 264 263 261 261 259 258 259 259 259 259 260 260 260 260 260 259 257 254 252 251 250 248 247 246 246 246 244 243 243 245 247 241 240 246 247 242 239 236 234 234 236 237 237 237 236 236 236 237 237 240 242 244 245 246 247 248 248 247 246
270 272 273 270 268 269 271 272 272 271 269 268 266 265 264 264 264 264 264 264 264 265 265 265 265 265 264 262 260 259 259 258 258 259 259 259 259 260 260 259 259 259 259 257 254 251 250 249 247 245 244 245 246 246 247 248 248 243 242 247 250 246 244 244 241 238 239 239 237 237 238 239 239 239 239 240 242 242 243 244 246 246 247 249 249
270 271 273 271 270 270 271 271 271 269 269 269 268 266 265 264 264 264 263 263 263 262 262 263 263 264 264 262 260 257 257 256 256 258 259 259 260 260 260 260 259 258 258 259 257 255 253 251 248 246 244 243 245 248 250 250 251 249 244 246 250 248 246 246 246 242 242 242 239 237 238 239 240 239 240 241 242 242 242 243 245 246 246 247 249
269 270 271 271 271 271 271 272 271 270 271 270 268 268 267 266 265 264 262 261 260 259 259 259 259 260 261 261 260 258 256 255 255 256 258 259 260 259 260 260 259 258 257 258 259 258 256 254 251 249 247 245 244 246 249 250 250 250 248 248 251 252 249 248 247 245 244 244 243 240 238 239 240 241 241 241 242 244 244 243 244 245 246 246 248
267 267 269 272 272 271 271 272 272 272 272 270 269 268 268 266 265 263 261 259 258 256 255 255 255 256 256 257 258 258 256 255 255 255 257 258 259 259 259 259 259 258 257 256 257 258 258 257 255 253 251 249 247 246 248 250 250 249 249 249 251 253 252 249 248 249 247 245 245 243 242 242 242 244 243 242 243 244 244 244 245 245 246 246 247
265 266 267 272 273 272 271 272 273 273 272 270 270 268 267 265 264 261 260 258 256 255 254 253 253 253 253 254 255 256 256 256 255 256 257 258 259 260 260 260 259 259 258 257 256 256 257 258 258 256 255 253 251 250 249 250 251 251 251 250 250 251 251 249 250 253 251 246 245 245 245 245 244 245 246 244 245 246 246 245 245 246 247 247 247
265 266 267 270 272 273 272 272 272 272 271 270 270 268 266 265 263 262 260 258 257 256 255 254 254 254 253 253 253 253 253 254 254 254 255 258 259 260 261 261 261 260 259 258 256 256 256 257 257 257 257 256 254 253 252 252 251 252 252 252 252 251 251 251 252 255 253 249 247 247 247 247 246 247 248 247 247 248 249 248 247 246 247 248 249
265 267 269 268 270 272 272 271 271 270 270 269 269 268 267 266 265 263 261 260 259 258 258 258 257 257 256 255 254 253 252 252 252 252 252 254 256 259 261 262 263 263 262 261 259 258 257 256 257 257 257 257 256 255 255 254 253 253 253 253 253 252 252 252 252 253 254 252 250 249 249 249 249 248 248 249 249 249 249 249 249 249 248 249 250
265 267 269 269 268 271 272 271 270 270 270 269 268 268 268 268 266 264 263 262 262 261 261 261 260 259 258 256 254 253 253 252 252 252 251 251 252 254 257 259 262 264 265 265 263 262 260 258 257 258 258 258 257 256 255 255 255 254 254 253 253 252 252 252 252 252 253 254 253 251 250 250 250 250 249 249 251 250 248 248 249 250 250 249 249
266 266 268 270 268 269 271 272 271 271 271 270 269 269 269 268 266 265 265 264 263 262 261 261 259 258 256 255 253 252 252 252 252 252 252 252 252 253 254 255 258 260 263 264 265 265 264 262 260 258 258 259 258 258 256 255 255 255 255 254 254 253 252 251 251 252 252 252 252 252 252 251 252 251 251 250 250 249 250 250 248 249 250 250 249
271 269 269 271 271 270 271 272 271 271 271 271 271 270 269 268 267 266 265 264 263 261 259 258 257 257 256 256 255 254 253 252 251 251 252 252 252 252 253 254 255 257 259 261 263 265 265 264 263 261 259 259 259 259 258 257 256 255 255 255 255 254 253 252 250 250 251 251 251 252 252 252 253 253 252 252 251 251 253 254 251 249 249 250 251
278 276 273 273 274 275 273 272 272 271 271 271 271 270 269 268 268 267 265 263 261 260 258 257 257 257 257 257 257 257 257 256 255 254 254 254 253 252 252 253 255 256 257 258 260 262 264 264 264 264 262 260 259 259 259 258 257 256 255 254 254 254 253 253 252 250 250 250 250 251 252 252 253 254 254 253 254 254 255 255 254 252 250 250 253
282 279 276 273 273 276 274 272 271 271 271 270 269 269 268 268 267 266 265 264 262 261 260 259 257 257 256 257 259 260 261 261 261 261 261 260 260 259 258 257 257 258 259 260 260 261 261 262 263 264 264 263 261 259 259 258 257 256 255 255 255 253 252 253 252 251 250 249 249 249 250 251 252 253 253 254 255 256 257 257 255 253 250 251 256
282 281 280 275 272 274 274 272 271 271 271 270 268 267 267 266 266 266 265 264 264 263 263 261 259 258 258 259 260 262 264 266 266 267 267 267 267 267 266 265 264 264 264 264 265 265 264 263 263 263 263 264 263 261 260 259 258 256 255 255 255 254 253 252 252 251 251 250 249 248 248 249 250 251 252 253 254 256 258 258 257 254 250 251 258
279 279 280 278 275 274 274 274 273 271 270 270 269 268 268 267 267 267 266 265 265 264 264 263 262 262 262 263 264 266 268 269 270 271 272 272 272 272 272 272 271 271 270 270 270 269 269 268 266 264 263 263 263 263 262 261 260 258 256 255 254 254 254 253 252 251 250 250 250 250 248 247 248 250 251 252 253 255 256 257 258 256 250 249 254
278 276 277 278 277 275 273 274 273 270 268 268 269 269 269 268 268 268 267 266 266 266 265 265 265 266 266 267 268 269 271 273 273 274 275 275 275 275 275 275 275 275 275 275 274 273 272 271 270 268 266 264 262 262 262 261 260 260 258 257 255 254 254 253 252 251 250 250 250 250 250 249 248 249 250 251 252 253 255 256 257 257 253 249 249
275 274 274 275 276 274 271 273 273 270 269 268 268 267 267 268 267 268 268 267 267 267 268 269 269 269 269 270 271 272 273 275 275 276 276 276 276 276 276 276 276 276 276 276 276 276 275 274 273 271 269 267 265 262 260 260 260 260 259 258 257 255 254 253 253 252 250 249 249 250 250 250 250 250 250 250 251 251 253 254 255 257 256 251 249
269 271 272 272 275 275 273 271 271 272 272 270 268 268 267 267 266 267 267 268 268 269 271 272 271 271 272 273 274 275 276 276 277 277 277 278 278 277 277 277 277 277 277 276 276 276 276 275 274 273 272 270 267 265 262 260 259 259 259 259 258 256 255 254 254 253 251 250 249 249 249 250 250 250 250 250 251 251 251 252 253 254 256 254 252
271 271 272 272 274 277 277 274 272 272 272 271 271 270 269 267 267 267 268 268 269 270 271 272 272 273 275 276 277 277 277 277 278 279 279 279 279 278 279 279 278 278 278 277 277 276 276 275 274 273 272 270 269 267 264 261 259 258 258 258 258 257 256 254 253 253 253 252 250 248 249 249 249 250 250 250 250 250 250 251 252 253 254 254 254
276 275 277 276 274 276 277 276 275 273 271 272 273 271 270 269 269 270 270 270 271 271 271 272 273 274 276 277 278 278 278 278 279 279 279 279 279 279 280 280 280 279 278 278 277 276 276 275 273 272 271 269 268 267 265 263 260 258 258 258 258 258 257 255 254 253 253 252 252 250 249 249 249 249 250 250 250 250 250 250 251 251 252 253 253
273 275 277 276 274 276 279 279 278 275 274 275 275 272 271 272 273 273 273 273 272 272 272 273 274 275 276 277 277 278 279 279 280 280 280 280 280 280 280 280 279 279 278 277 276 276 275 274 273 272 270 268 266 265 264 263 261 259 258 258 258 258 257 256 255 253 253 252 252 251 250 249 249 249 249 249 250 251 251 251 251 250 251 252 252
269 270 269 270 274 278 280 281 281 278 278 278 276 275 275 275 275 275 274 274 274 274 274 275 276 277 277 278 277 278 279 279 279 279 279 280 280 280 279 279 278 278 277 276 275 275 273 272 272 271 270 268 266 264 263 262 262 260 258 257 257 258 258 257 256 254 253 252 251 251 251 250 250 249 248 248 249 250 251 251 251 251 250 250 251
267 267 268 270 274 278 279 281 281 278 277 278 277 277 278 276 275 274 274 274 275 275 276 276 277 278 278 278 278 278 278 278 278 277 277 277 277 278 277 277 277 276 276 275 274 273 272 271 271 270 270 269 267 265 263 262 261 260 259 258 257 257 257 258 258 256 254 252 251 251 251 250 250 249 249 248 248 249 250 250 251 251 251 250 250
269 269 271 271 272 276 278 280 279 274 273 276 276 277 277 275 274 273 273 274 275 276 276 277 278 278 279 279 278 278 277 276 276 276 276 276 275 276 276 276 276 275 275 274 274 273 272 271 270 269 269 268 267 266 264 263 262 261 260 259 258 257 256 256 257 257 256 254 251 250 250 250 249 249 249 249 248 248 249 249 249 250 251 251 251
271 273 274 270 268 271 274 277 276 272 271 273 273 275 275 274 274 274 274 275 276 276 277 277 278 278 278 278 277 276 275 275 275 275 275 275 275 276 276 276 276 275 275 274 273 273 272 271 270 269 268 268 268 267 265 264 262 261 261 260 259 258 257 256 256 256 256 255 254 251 249 249 249 248 248 249 248 247 247 248 248 248 249 251 251
268 271 273 271 271 269 267 270 271 269 269 270 270 273 273 272 273 274 275 276 276 276 277 277 277 277 277 276 275 274 275 275 275 275 276 276 277 277 277 277 276 276 275 275 274 274 273 272 271 270 269 268 268 267 266 265 263 261 261 260 259 258 257 256 256 255 255 255 255 253 251 249 248 248 247 247 248 247 246 247 248 247 247 249 250
265 264 264 267 273 272 269 269 266 265 267 267 267 269 271 272 273 274 275 275 274 274 275 275 276 276 275 274 273 274 276 277 278 278 279 279 279 279 278 278 277 277 276 276 275 275 274 273 272 271 270 269 269 268 267 266 265 263 261 260 259 258 257 256 256 256 255 255 254 254 253 251 249 248 247 247 247 247 245 245 246 247 246 247 247
262 260 260 264 267 269 273 272 262 261 266 265 263 264 266 269 272 273 273 273 271 271 272 274 275 275 274 272 272 275 277 279 281 282 282 282 281 279 278 278 277 277 277 276 276 275 274 274 272 271 270 269 268 268 267 267 266 265 263 261 259 258 257 256 256 255 255 255 254 254 253 252 250 249 248 247 246 246 246 244 244 245 246 245 246
259 257 259 263 264 265 270 268 260 260 265 262 261 263 264 266 268 270 271 270 269 269 270 272 273 273 273 273 274 276 278 280 282 283 284 283 282 281 279 279 278 278 277 277 276 276 275 274 273 272 271 270 268 267 267 266 266 265 264 262 260 259 257 256 255 254 255 255 255 254 253 252 251 250 248 248 247 246 246 245 244 244 244 244 244
260 257 258 261 262 262 263 263 259 258 258 257 259 262 264 265 265 265 266 266 266 267 269 270 271 271 272 275 277 278 280 283 285 286 286 285 284 283 282 282 281 280 280 279 278 278 277 275 274 272 271 270 269 268 267 266 265 265 264 263 262 260 258 256 255 254 253 253 254 254 253 252 251 250 249 248 248 246 246 246 246 244 244 244 244
259 259 258 259 260 258 257 258 255 250 249 253 258 261 262 265 264 262 262 262 262 265 267 269 270 271 273 276 278 280 283 286 288 289 289 288 286 285 285 284 284 283 282 282 281 280 279 277 275 274 272 271 270 269 268 266 265 264 264 263 262 261 259 258 256 254 253 252 252 252 253 252 251 250 249 248 247 247 246 246 246 245 245 244 244
256 256 256 255 256 253 252 253 250 242 242 249 255 259 260 261 261 260 260 259 260 263 265 268 269 271 273 276 278 281 284 287 289 289 289 288 288 287 286 286 286 285 284 284 282 281 279 277 276 274 273 271 270 269 268 266 265 264 263 263 262 261 260 259 257 255 253 251 251 250 251 251 251 250 250 248 247 247 246 245 245 245 244 244 244
257 256 254 252 252 249 247 247 245 240 241 247 254 259 260 258 259 260 259 259 259 261 264 266 268 270 273 275 278 280 283 286 289 290 289 288 288 287 288 288 288 287 286 285 283 281 280 278 276 275 273 271 270 269 268 266 265 264 263 262 261 261 260 259 258 256 255 253 251 249 249 249 250 250 249 249 248 246 245 245 244 244 244 244 244
257 256 253 250 249 247 244 243 242 241 243 249 257 261 259 258 259 260 259 258 258 260 263 264 267 270 273 276 278 280 283 287 289 290 290 289 289 289 290 290 289 288 288 287 285 283 281 280 278 276 274 272 270 269 268 267 266 264 264 263 262 261 260 259 258 257 255 254 252 249 248 247 248 248 248 249 248 247 245 244 244 244 243 243 243
255 253 250 247 246 246 243 241 242 243 244 250 258 262 260 261 261 259 258 258 258 260 261 263 266 270 273 275 277 280 283 287 289 290 291 291 291 291 291 291 291 290 290 289 286 284 283 281 279 277 275 273 271 269 269 268 266 265 264 263 263 262 260 259 258 257 256 254 253 251 248 246 246 246 247 248 248 247 246 244 244 243 243 242 242
256 254 250 245 243 244 244 242 241 243 245 251 257 259 258 260 260 257 257 258 258 259 260 262 267 270 273 275 277 279 283 286 289 291 292 292 292 293 293 293 292 291 291 289 286 285 283 281 280 278 276 274 272 271 269 268 267 266 265 263 262 262 261 259 258 257 256 255 254 252 250 247 245 244 244 246 247 248 246 245 243 242 242 242 241
258 255 251 247 244 242 242 242 241 241 244 250 256 256 255 257 257 255 256 258 258 259 261 263 266 269 271 274 277 280 283 286 289 291 292 293 294 294 294 293 292 292 291 288 286 285 284 282 281 279 277 276 274 272 270 269 267 266 265 263 262 261 260 259 258 257 257 256 255 253 251 249 246 244 243 244 245 247 247 245 243 241 241 241 241
259 255 252 250 245 240 240 241 240 239 242 249 252 253 255 255 254 254 255 256 257 259 261 264 267 268 270 273 276 279 282 286 290 292 293 294 294 294 294 293 292 292 290 287 286 286 285 284 283 282 280 278 275 273 272 270 268 267 265 264 262 261 259 259 258 257 257 256 255 254 252 250 247 245 244 243 244 246 246 245 243 241 240 240 240
261 255 252 245 238 238 242 242 241 240 242 246 248 251 253 254 255 256 255 254 255 257 259 264 267 268 270 273 276 279 283 287 291 293 294 295 295 294 293 293 293 291 288 287 287 287 287 286 285 283 282 280 278 276 274 272 271 269 268 266 263 262 260 259 258 257 256 256 255 253 252 251 249 246 244 243 243 244 245 244 243 241 239 238 239
259 254 247 233 231 242 246 240 236 235 237 242 246 250 254 256 257 257 255 253 253 255 258 263 266 268 271 274 276 280 284 288 291 293 294 295 294 293 293 293 291 289 288 288 289 289 289 288 286 285 283 282 281 279 277 275 273 271 270 268 266 264 262 261 260 258 257 256 254 253 251 250 248 246 244 242 242 242 243 243 242 239 238 237 238
254 250 239 227 231 242 239 227 226 229 234 242 248 250 255 258 257 254 251 251 252 255 260 264 267 269 271 274 278 281 285 289 291 292 293 293 292 291 291 290 288 287 288 290 290 291 290 288 286 286 285 284 283 281 278 276 274 272 271 269 268 267 265 263 261 259 258 256 254 253 251 250 248 246 244 242 240 240 240 240 240 238 235 235 236
253 248 237 229 229 228 222 220 227 234 240 246 250 253 257 257 252 248 247 249 252 257 263 266 267 270 273 276 279 283 286 289 290 291 291 291 291 290 289 288 288 289 291 292 292 290 289 287 287 288 289 288 285 283 280 277 275 273 271 270 269 267 266 264 262 260 258 257 255 253 251 249 247 245 244 241 239 238 237 237 237 235 232 232 234
255 243 230 228 224 220 221 230 240 245 247 249 252 256 256 251 245 243 246 250 255 261 264 266 268 271 274 277 281 284 287 288 288 289 290 290 289 288 288 288 290 292 293 292 291 289 288 288 290 292 292 290 287 285 282 280 277 274 271 269 267 266 265 264 262 260 258 257 256 254 251 248 246 244 242 240 237 236 235 234 234 232 230 230 231
253 236 221 221 220 221 230 241 245 247 249 249 251 253 250 245 242 243 247 253 259 262 264 266 269 273 276 280 283 285 286 286 287 288 288 288 287 287 288 290 293 294 294 292 290 289 289 291 293 295 294 293 290 287 283 280 277 273 270 268 267 266 266 264 262 259 257 255 254 252 250 247 245 242 239 236 234 233 231 231 231 229 227 228 229
245 235 227 226 225 227 234 241 243 245 247 247 246 244 241 239 241 245 251 258 261 263 265 268 272 275 279 282 283 284 285 286 287 288 288 287 287 288 290 293 295 295 293 292 291 292 293 295 296 296 296 295 291 285 280 277 275 274 272 270 269 269 269 268 266 262 258 254 250 248 246 245 243 241 237 234 233 231 229 228 227 226 225 226 228
225 224 228 232 234 232 232 235 237 239 238 237 236 235 236 239 243 249 256 259 261 264 268 271 274 277 280 282 283 285 286 286 287 288 288 287 288 290 293 296 296 295 292 291 293 295 297 297 297 298 297 294 287 280 276 275 276 278 276 274 273 272 272 270 268 265 261 254 248 244 242 241 240 238 236 233 232 229 227 225 224 224 223 225 227
211 216 223 228 230 226 220 220 222 221 221 225 229 232 237 242 247 253 258 260 263 267 270 273 276 279 281 283 285 286 287 287 288 288 287 288 290 294 297 298 297 294 292 292 295 297 298 298 299 299 298 292 285 280 278 276 276 277 278 276 274 273 272 270 267 263 258 251 245 242 240 239 238 235 233 230 227 225 224 223 222 222 222 224 226
212 216 217 217 215 210 205 206 209 212 217 227 234 236 240 247 252 255 258 262 265 269 272 275 277 280 283 286 287 288 288 288 287 287 287 291 296 299 300 300 298 295 293 295 297 299 300 301 301 301 297 290 286 286 283 279 276 277 278 277 275 273 274 271 266 260 253 244 240 239 237 236 235 232 228 226 223 222 222 221 220 220 221 222 224
229 216 211 212 209 206 209 214 217 220 225 234 241 243 245 250 253 254 258 262 266 270 274 278 281 284 287 289 289 289 288 287 287 289 292 296 300 302 302 301 299 296 297 299 300 301 302 303 304 302 296 288 286 288 287 286 285 283 280 278 276 275 276 274 266 257 247 239 235 235 233 232 230 228 225 223 222 221 219 219 219 219 220 221 223
244 225 218 217 216 218 227 230 229 230 231 237 244 246 247 250 252 255 259 263 269 275 280 283 286 288 290 290 289 287 286 287 288 293 297 301 303 304 303 302 299 298 300 301 302 305 306 306 307 305 297 288 286 285 286 291 294 292 286 281 277 277 277 273 264 253 241 231 228 228 228 228 225 223 223 222 221 219 217 216 217 219 220 221 222
245 236 230 227 226 230 232 232 234 235 233 236 241 243 244 248 253 257 263 269 276 282 285 287 289 290 290 289 287 285 286 289 293 298 301 304 305 306 305 302 299 299 301 302 304 308 309 309 311 308 297 289 288 288 289 293 296 294 289 284 279 277 274 268 259 247 233 223 220 220 221 221 219 218 218 220 220 219 217 216 216 218 219 221 222
Height
5761 5759 5759 5762 5765 5766 5766 5766 5768 5768 5769 5770 5770 5770 5770 5771 5771 5771 5771 5771 5771 5771 5772 5772 5773 5774 5775 5775 5776 5776 5777 5777 5777 5778 5779 5780 5780 5781 5783 5784 5785 5786 5788 5790 5792 5792 5794 5795 5797 5799 5800 5802 5802 5802 5803 5804 5806 5808 5810 5811 5813 5814 5814 5816 5818 5820 5822 5823 5825 5827 5828 5829 5831 5832 5834 5836 5838 5839 5841 5842 5844 5845 5846 5847 5848
5758 5756 5755 5756 5760 5763 5762 5762 5765 5765 5765 5766 5766 5767 5767 5768 5769 5769 5769 5769 5769 5769 5769 5769 5770 5771 5772 5773 5774 5774 5774 5775 5775 5775 5776 5777 5778 5779 5780 5781 5782 5783 5784 5786 5788 5789 5790 5792 5794 5796 5798 5799 5799 5799 5801 5801 5802 5805 5807 5808 5810 5810 5811 5812 5814 5816 5818 5819 5822 5824 5825 5827 5828 5830 5832 5833 5834 5835 5837 5838 5840 5841 5842 5844 5845
5756 5754 5752 5751 5756 5760 5758 5758 5760 5761 5762 5763 5762 5763 5764 5765 5766 5766 5766 5766 5766 5767 5766 5767 5767 5768 5769 5769 5771 5772 5772 5772 5773 5773 5774 5774 5776 5776 5778 5779 5780 5781 5782 5782 5784 5785 5787 5788 5790 5792 5794 5796 5796 5796 5797 5798 5800 5802 5803 5804 5806 5807 5808 5809 5810 5812 5814 5815 5817 5820 5822 5823 5824 5827 5828 5829 5830 5831 5832 5834 5836 5836 5838 5840 5841
5752 5752 5749 5748 5751 5755 5755 5755 5756 5757 5758 5759 5759 5759 5760 5761 5762 5763 5764 5764 5764 5764 5764 5764 5765 5765 5766 5766 5768 5769 5769 5770 5770 5771 5771 5772 5773 5774 5775 5776 5777 5778 5779 5780 5781 5782 5783 5785 5786 5788 5790 5792 5793 5793 5794 5795 5797 5799 5800 5801 5801 5802 5805 5806 5806 5808 5810 5811 5813 5816 5818 5819 5822 5823 5823 5824 5825 5826 5828 5830 5832 5833 5834 5836 5838
5749 5749 5746 5745 5748 5750 5752 5752 5751 5753 5755 5755 5755 5756 5757 5757 5758 5760 5760 5761 5761 5761 5761 5762 5762 5763 5763 5764 5765 5766 5767 5767 5768 5768 5769 5769 5770 5771 5772 5773 5773 5775 5776 5777 5778 5778 5779 5781 5782 5784 5786 5787 5789 5790 5790 5791 5793 5795 5797 5797 5797 5799 5801 5801 5801 5803 5805 5807 5809 5812 5814 5817 5819 5818 5818 5821 5821 5822 5824 5826 5827 5829 5831 5832 5834
5746 5746 5744 5744 5744 5745 5748 5749 5748 5749 5750 5751 5752 5752 5753 5754 5755 5756 5757 5757 5758 5758 5759 5759 5759 5760 5761 5762 5762 5763 5764 5764 5765 5766 5766 5767 5767 5768 5769 5770 5770 5771 5773 5774 5775 5775 5776 5777 5778 5780 5781 5783 5784 5785 5786 5787 5789 5790 5792 5792 5793 5794 5796 5797 5798 5799 5801 5802 5804 5807 5810 5813 5814 5813 5814 5817 5818 5818 5820 5821 5823 5825 5826 5828 5830
5743 5743 5741 5742 5742 5741 5744 5745 5745 5745 5746 5747 5748 5748 5749 5750 5751 5752 5753 5754 5754 5755 5755 5756 5756 5757 5758 5759 5760 5761 5761 5762 5763 5763 5764 5764 5764 5765 5765 5766 5767 5768 5769 5770 5771 5772 5773 5774 5774 5775 5777 5778 5779 5781 5782 5783 5784 5785 5786 5787 5788 5790 5791 5793 5795 5796 5796 5798 5800 5802 5804 5807 5808 5808 5810 5812 5814 5815 5817 5817 5819 5821 5822 5824 5826
5740 5739 5738 5739 5740 5739 5739 5741 5741 5741 5742 5743 5744 5744 5745 5746 5747 5748 5749 5750 5751 5751 5752 5752 5753 5754 5755 5756 5756 5757 5758 5759 5760 5760 5761 5762 5762 5762 5762 5763 5763 5764 5765 5766 5767 5769 5770 5770 5771 5772 5773 5774 5775 5776 5777 5778 5780 5781 5781 5782 5784 5785 5786 5788 5791 5791 5791 5794 5796 5797 5799 5800 5801 5803 5806 5807 5808 5811 5813 5814 5815 5817 5818 5820 5821
5736 5737 5735 5735 5737 5737 5736 5737 5738 5738 5738 5739 5740 5740 5741 5743 5743 5744 5745 5746 5747 5748 5748 5749 5750 5750 5751 5752 5752 5753 5754 5755 5756 5757 5758 5759 5759 5760 5760 5760 5760 5761 5761 5762 5763 5764 5766 5767 5768 5768 5769 5770 5771 5772 5773 5774 5775 5776 5777 5777 5779 5781 5782 5784 5786 5787 5788 5790 5791 5792 5794 5794 5795 5798 5801 5802 5803 5804 5807 5809 5811 5812 5812 5815 5817
5732 5734 5732 5731 5733 5734 5733 5733 5734 5734 5735 5735 5736 5737 5738 5739 5739 5740 5741 5743 5743 5744 5745 5745 5746 5746 5747 5748 5749 5750 5751 5752 5752 5753 5754 5755 5756 5756 5757 5758 5758 5758 5758 5758 5759 5760 5761 5762 5764 5765 5765 5766 5767 5767 5768 5769 5771 5772 5772 5773 5774 5776 5777 5779 5781 5783 5784 5786 5787 5787 5788 5789 5790 5793 5796 5797 5798 5799 5800 5803 5805 5806 5807 5809 5811
5728 5729 5729 5728 5729 5731 5731 5730 5730 5731 5731 5731 5732 5733 5734 5734 5735 5736 5737 5739 5740 5740 5741 5741 5742 5742 5743 5743 5744 5745 5746 5747 5748 5749 5750 5751 5752 5753 5753 5754 5755 5755 5755 5755 5756 5756 5757 5758 5759 5760 5761 5762 5763 5763 5764 5765 5766 5767 5767 5768 5769 5770 5772 5773 5776 5778 5778 5780 5782 5782 5783 5785 5786 5788 5790 5791 5792 5794 5796 5797 5800 5801 5802 5804 5805
5724 5724 5725 5725 5726 5726 5727 5727 5727 5727 5728 5728 5729 5729 5730 5731 5731 5732 5733 5735 5736 5736 5737 5738 5738 5739 5739 5739 5740 5741 5742 5743 5744 5745 5745 5746 5747 5748 5749 5750 5751 5751 5752 5752 5752 5753 5753 5753 5754 5755 5756 5757 5758 5759 5759 5760 5761 5762 5763 5763 5764 5765 5766 5767 5770 5772 5773 5775 5776 5777 5779 5780 5781 5783 5785 5785 5786 5788 5790 5793 5796 5796 5797 5799 5800
5720 5720 5721 5722 5723 5723 5723 5723 5724 5724 5724 5724 5725 5726 5726 5727 5728 5728 5729 5730 5732 5732 5733 5734 5735 5735 5735 5736 5736 5736 5737 5738 5739 5740 5741 5741 5742 5743 5744 5745 5746 5747 5748 5748 5749 5749 5749 5749 5750 5750 5751 5752 5753 5754 5755 5755 5756 5757 5758 5758 5759 5760 5761 5762 5763 5766 5768 5768 5770 5772 5774 5775 5776 5778 5780 5780 5781 5782 5784 5788 5790 5790 5791 5793 5793
5718 5717 5716 5717 5720 5721 5719 5719 5721 5721 5721 5721 5722 5722 5723 5723 5724 5724 5725 5726 5728 5729 5729 5730 5731 5731 5732 5732 5732 5732 5733 5733 5734 5735 5735 5736 5737 5737 5738 5739 5740 5741 5742 5743 5744 5744 5745 5745 5746 5746 5746 5746 5747 5748 5749 5750 5750 5752 5753 5753 5754 5754 5755 5756 5757 5760 5761 5762 5763 5766 5768 5769 5770 5772 5774 5775 5776 5777 5779 5782 5783 5785 5786 5787 5788
5715 5714 5712 5711 5715 5718 5716 5716 5717 5718 5718 5717 5718 5719 5719 5719 5720 5720 5721 5723 5724 5725 5725 5726 5726 5727 5727 5728 5728 5728 5728 5729 5729 5730 5731 5731 5731 5732 5733 5733 5734 5735 5736 5737 5738 5738 5739 5740 5740 5741 5741 5742 5742 5742 5743 5744 5745 5745 5747 5748 5748 5748 5749 5750 5752 5753 5755 5756 5757 5758 5760 5762 5764 5765 5767 5769 5770 5772 5774 5775 5777 5779 5781 5782 5784
5710 5711 5709 5707 5709 5713 5713 5712 5713 5714 5714 5714 5714 5715 5715 5715 5716 5716 5717 5719 5720 5721 5721 5721 5722 5723 5723 5723 5723 5724 5724 5724 5724 5725 5726 5726 5726 5727 5727 5728 5728 5729 5730 5730 5731 5732 5733 5733 5734 5735 5736 5736 5737 5737 5737 5738 5739 5739 5740 5741 5742 5742 5743 5744 5745 5747 5748 5749 5750 5751 5753 5755 5758 5759 5761 5762 5764 5766 5768 5769 5770 5772 5775 5777 5779
5705 5706 5706 5703 5703 5707 5709 5709 5709 5709 5709 5710 5710 5711 5711 5712 5712 5713 5713 5714 5716 5716 5716 5717 5717 5718 5718 5718 5719 5719 5719 5719 5720 5720 5720 5721 5721 5721 5722 5722 5723 5723 5724 5724 5725 5725 5726 5727 5727 5728 5729 5730 5730 5731 5732 5732 5732 5733 5734 5734 5735 5736 5737 5738 5739 5740 5742 5743 5744 5745 5746 5748 5751 5753 5754 5756 5758 5760 5761 5763 5764 5766 5768 5771 5774
5702 5702 5702 5701 5699 5700 5704 5706 5706 5705 5705 5706 5707 5707 5707 5708 5708 5708 5709 5710 5711 5712 5711 5711 5712 5713 5713 5713 5714 5714 5714 5714 5714 5715 5715 5715 5715 5715 5716 5716 5717 5718 5718 5718 5719 5719 5719 5720 5720 5721 5722 5723 5723 5724 5725 5726 5726 5727 5727 5728 5728 5729 5730 5732 5732 5733 5735 5736 5738 5739 5740 5742 5744 5745 5747 5749 5751 5753 5754 5756 5758 5760 5762 5765 5768
5698 5698 5698 5698 5697 5695 5698 5700 5701 5701 5700 5701 5702 5703 5703 5703 5703 5704 5704 5705 5706 5707 5706 5706 5707 5707 5708 5708 5709 5709 5709 5709 5709 5709 5709 5709 5709 5709 5710 5710 5711 5711 5712 5712 5712 5712 5713 5713 5713 5714 5715 5715 5716 5717 5718 5719 5720 5721 5721 5721 5722 5722 5723 5725 5725 5726 5728 5729 5731 5732 5733 5735 5737 5738 5740 5743 5744 5746 5748 5749 5751 5754 5755 5758 5761
5695 5695 5695 5695 5695 5693 5693 5695 5696 5696 5696 5696 5697 5698 5698 5698 5699 5700 5700 5700 5701 5702 5702 5701 5702 5702 5703 5703 5703 5703 5703 5703 5703 5703 5703 5703 5703 5703 5704 5704 5704 5705 5705 5705 5706 5706 5706 5706 5706 5707 5708 5708 5709 5709 5710 5712 5713 5714 5714 5715 5715 5716 5716 5718 5719 5720 5721 5722 5723 5725 5727 5728 5730 5731 5734 5735 5737 5739 5741 5742 5744 5747 5749 5751 5755
5691 5692 5691 5691 5691 5691 5690 5691 5691 5691 5691 5693 5693 5692 5694 5695 5695 5696 5696 5696 5697 5697 5697 5697 5697 5698 5698 5698 5698 5698 5698 5698 5698 5697 5697 5696 5697 5697 5697 5697 5698 5698 5698 5698 5699 5699 5699 5699 5699 5700 5701 5701 5702 5702 5703 5704 5705 5706 5707 5708 5708 5709 5709 5711 5712 5713 5714 5715 5716 5718 5720 5721 5723 5725 5727 5728 5730 5732 5734 5736 5737 5739 5742 5744 5748
5686 5688 5688 5687 5687 5687 5686 5687 5687 5687 5688 5690 5689 5688 5690 5691 5690 5691 5691 5691 5692 5693 5693 5693 5693 5693 5693 5693 5692 5692 5692 5692 5692 5691 5691 5690 5690 5690 5690 5690 5691 5691 5691 5691 5692 5692 5692 5692 5692 5692 5693 5694 5695 5695 5696 5696 5697 5698 5700 5700 5701 5702 5702 5703 5704 5705 5707 5708 5709 5711 5712 5714 5716 5717 5720 5722 5724 5725 5727 5729 5731 5733 5736 5738 5741
5681 5682 5683 5683 5683 5682 5682 5682 5682 5682 5685 5686 5684 5685 5686 5686 5686 5686 5686 5686 5687 5688 5688 5688 5688 5688 5688 5687 5687 5687 5687 5686 5686 5685 5685 5684 5684 5684 5684 5684 5684 5684 5684 5684 5685 5685 5685 5686 5686 5685 5685 5686 5687 5688 5688 5689 5690 5690 5692 5693 5694 5695 5695 5696 5697 5698 5699 5700 5702 5704 5705 5707 5709 5710 5713 5715 5717 5719 5720 5722 5724 5726 5729 5731 5733
5677 5678 5678 5679 5679 5678 5678 5678 5676 5677 5681 5681 5680 5681 5681 5682 5682 5682 5682 5682 5682 5683 5683 5683 5683 5683 5683 5682 5682 5681 5681 5680 5680 5679 5679 5678 5678 5678 5677 5677 5678 5677 5678 5678 5677 5678 5678 5678 5679 5678 5678 5678 5679 5680 5681 5682 5682 5683 5684 5685 5686 5687 5688 5689 5690 5690 5691 5693 5694 5696 5698 5700 5701 5703 5705 5707 5710 5712 5713 5715 5717 5719 5721 5724 5726
5673 5674 5674 5674 5674 5674 5674 5674 5672 5672 5676 5677 5676 5676 5677 5677 5677 5677 5678 5677 5677 5678 5678 5678 5678 5678 5678 5677 5676 5676 5675 5674 5674 5673 5673 5672 5672 5672 5671 5671 5671 5671 5671 5671 5671 5671 5671 5671 5672 5672 5672 5672 5671 5672 5673 5674 5674 5675 5676 5677 5678 5679 5680 5681 5683 5683 5684 5685 5687 5689 5691 5692 5694 5696 5698 5700 5702 5704 5706 5707 5710 5713 5715 5717 5719
5669 5670 5670 5669 5670 5670 5669 5670 5668 5667 5670 5671 5671 5672 5672 5672 5673 5672 5673 5673 5672 5673 5673 5673 5673 5673 5673 5672 5671 5670 5669 5669 5669 5668 5667 5667 5666 5666 5665 5665 5664 5664 5664 5664 5664 5664 5664 5664 5665 5665 5665 5665 5664 5664 5665 5665 5666 5667 5668 5669 5670 5671 5672 5673 5675 5676 5677 5678 5680 5681 5683 5685 5687 5688 5690 5692 5694 5696 5699 5700 5702 5705 5708 5710 5712
5665 5665 5664 5664 5665 5664 5665 5666 5664 5662 5663 5664 5666 5667 5667 5667 5667 5667 5668 5668 5667 5668 5668 5667 5667 5668 5668 5667 5666 5665 5664 5664 5663 5663 5662 5661 5661 5660 5659 5658 5658 5657 5657 5657 5657 5657 5657 5657 5657 5657 5657 5658 5657 5657 5657 5657 5658 5658 5659 5660 5661 5662 5664 5665 5666 5668 5669 5671 5672 5674 5676 5678 5680 5681 5683 5685 5687 5689 5691 5694 5695 5698 5701 5702 5705
5659 5660 5659 5659 5660 5660 5660 5661 5659 5657 5657 5657 5658 5662 5662 5663 5663 5661 5662 5663 5663 5662 5662 5662 5662 5662 5662 5662 5661 5661 5660 5659 5658 5657 5657 5656 5655 5654 5653 5652 5651 5651 5651 5650 5650 5650 5650 5650 5650 5649 5649 5650 5650 5649 5649 5649 5649 5649 5650 5651 5653 5654 5655 5657 5658 5660 5661 5663 5665 5666 5668 5670 5672 5674 5676 5678 5680 5681 5684 5686 5688 5690 5693 5695 5698
5653 5654 5654 5654 5655 5655 5656 5656 5654 5652 5653 5651 5650 5653 5656 5658 5658 5657 5656 5658 5657 5657 5657 5657 5657 5657 5657 5657 5657 5656 5656 5655 5653 5652 5651 5650 5649 5647 5646 5646 5645 5644 5644 5643 5643 5643 5643 5642 5642 5641 5641 5642 5642 5642 5641 5641 5641 5640 5640 5642 5643 5645 5646 5648 5649 5651 5653 5655 5656 5658 5660 5662 5664 5666 5668 5670 5672 5674 5676 5678 5681 5683 5685 5688 5691
5644 5645 5647 5648 5649 5650 5651 5651 5650 5647 5646 5644 5643 5646 5649 5651 5653 5652 5652 5652 5652 5652 5652 5652 5652 5651 5651 5651 5651 5651 5650 5649 5648 5647 5645 5644 5643 5641 5640 5639 5639 5638 5637 5636 5636 5635 5635 5634 5633 5633 5633 5633 5633 5633 5633 5633 5632 5632 5632 5632 5634 5635 5637 5638 5640 5643 5644 5646 5648 5649 5652 5654 5656 5659 5661 5662 5664 5667 5669 5671 5673 5676 5678 5681 5684
5635 5636 5638 5640 5641 5643 5644 5645 5646 5643 5639 5638 5638 5639 5641 5645 5647 5647 5647 5647 5647 5647 5647 5646 5646 5646 5646 5646 5645 5645 5644 5643 5642 5641 5639 5638 5637 5635 5634 5633 5633 5632 5631 5630 5629 5628 5627 5626 5625 5625 5625 5625 5625 5625 5625 5624 5624 5623 5623 5623 5624 5626 5627 5629 5631 5633 5635 5637 5639 5641 5643 5645 5648 5651 5653 5655 5657 5659 5662 5664 5665 5668 5670 5673 5677
5625 5626 5629 5631 5632 5636 5637 5638 5640 5639 5635 5633 5633 5633 5635 5639 5640 5641 5642 5642 5642 5642 5641 5641 5641 5641 5641 5641 5640 5639 5638 5637 5636 5635 5634 5632 5631 5629 5628 5627 5626 5625 5624 5623 5622 5621 5619 5618 5617 5617 5617 5617 5617 5617 5616 5616 5615 5614 5614 5614 5615 5616 5618 5619 5621 5623 5625 5627 5630 5632 5634 5636 5639 5642 5644 5646 5649 5651 5654 5656 5657 5660 5662 5665 5668
5617 5616 5619 5622 5623 5626 5629 5630 5633 5634 5632 5630 5628 5627 5630 5633 5634 5635 5636 5636 5637 5637 5636 5636 5636 5636 5636 5635 5635 5634 5633 5632 5631 5629 5628 5626 5625 5623 5622 5621 5620 5618 5617 5617 5615 5613 5612 5611 5610 5609 5608 5608 5608 5608 5607 5607 5606 5606 5605 5605 5606 5607 5608 5610 5611 5613 5614 5617 5620 5622 5625 5628 5631 5633 5635 5638 5641 5643 5645 5647 5649 5651 5654 5657 5660
5607 5608 5610 5612 5613 5616 5619 5621 5623 5626 5627 5626 5623 5622 5624 5627 5629 5629 5630 5631 5632 5632 5631 5631 5631 5631 5630 5630 5629 5628 5627 5626 5624 5623 5621 5620 5619 5617 5616 5615 5613 5611 5611 5609 5607 5605 5604 5603 5601 5600 5600 5600 5599 5599 5598 5598 5597 5597 5596 5596 5597 5598 5599 5600 5601 5603 5605 5607 5609 5612 5615 5619 5622 5624 5627 5629 5631 5634 5636 5638 5641 5643 5646 5650 5653
5598 5599 5600 5602 5604 5607 5610 5612 5614 5616 5618 5618 5618 5618 5619 5621 5623 5624 5624 5626 5626 5626 5626 5626 5626 5626 5625 5624 5624 5623 5621 5620 5618 5617 5615 5613 5612 5611 5609 5608 5606 5604 5604 5602 5599 5597 5596 5594 5593 5592 5591 5591 5591 5590 5589 5589 5589 5588 5588 5588 5588 5588 5589 5591 5592 5593 5595 5596 5599 5602 5606 5610 5613 5616 5619 5621 5622 5624 5626 5629 5632 5635 5639 5642 5645
5590 5590 5591 5593 5595 5599 5602 5604 5606 5607 5609 5611 5613 5614 5615 5616 5617 5618 5619 5620 5620 5620 5621 5621 5621 5621 5620 5619 5618 5617 5615 5614 5612 5611 5609 5607 5606 5604 5602 5601 5599 5597 5596 5594 5591 5589 5588 5586 5585 5584 5583 5582 5582 5581 5580 5580 5579 5579 5579 5579 5578 5579 5580 5581 5582 5583 5584 5586 5589 5592 5596 5599 5603 5607 5610 5612 5612 5614 5616 5620 5623 5627 5631 5634 5638
5582 5582 5583 5586 5588 5591 5595 5597 5597 5599 5604 5607 5608 5609 5610 5610 5611 5613 5614 5614 5615 5615 5615 5615 5616 5616 5615 5613 5612 5611 5610 5608 5606 5605 5603 5601 5599 5597 5596 5594 5592 5591 5589 5585 5583 5582 5580 5579 5578 5576 5574 5574 5573 5572 5571 5570 5570 5569 5569 5569 5569 5569 5569 5571 5572 5573 5575 5577 5579 5582 5585 5589 5593 5597 5601 5603 5603 5603 5606 5611 5615 5618 5622 5626 5631
5575 5575 5576 5579 5582 5585 5588 5589 5589 5594 5600 5602 5602 5604 5605 5604 5605 5607 5608 5609 5609 5610 5609 5610 5611 5611 5609 5608 5607 5605 5604 5602 5601 5599 5597 5595 5593 5591 5589 5587 5585 5583 5581 5578 5576 5575 5573 5572 5570 5568 5567 5565 5565 5564 5562 5561 5560 5559 5559 5559 5558 5558 5559 5561 5562 5564 5565 5567 5569 5572 5575 5578 5583 5588 5590 5593 5595 5594 5596 5602 5606 5609 5613 5618 5623
5568 5568 5570 5573 5576 5578 5579 5581 5584 5591 5594 5595 5596 5599 5600 5599 5601 5602 5602 5603 5604 5604 5604 5604 5605 5604 5603 5602 5601 5600 5598 5597 5595 5593 5591 5589 5587 5585 5582 5580 5578 5576 5574 5572 5570 5569 5567 5565 5562 5560 5558 5557 5556 5555 5553 5552 5552 5550 5549 5548 5547 5548 5549 5551 5552 5553 5555 5557 5559 5562 5564 5567 5572 5576 5579 5583 5585 5585 5587 5592 5596 5599 5604 5611 5615
5561 5563 5566 5567 5568 5570 5572 5575 5581 5585 5587 5588 5591 5594 5594 5595 5596 5596 5597 5598 5599 5599 5600 5600 5599 5598 5597 5597 5596 5594 5593 5591 5589 5587 5585 5583 5581 5578 5576 5575 5572 5569 5567 5566 5564 5561 5559 5557 5555 5552 5550 5548 5547 5546 5545 5543 5542 5541 5539 5537 5537 5537 5539 5540 5540 5542 5544 5546 5549 5551 5554 5557 5561 5564 5568 5572 5575 5576 5578 5583 5586 5591 5598 5604 5607
5557 5558 5560 5562 5564 5567 5570 5573 5577 5579 5580 5582 5585 5588 5589 5589 5589 5590 5591 5593 5593 5594 5595 5594 5592 5592 5592 5591 5590 5589 5587 5585 5584 5582 5580 5578 5575 5573 5570 5569 5566 5564 5562 5560 5557 5554 5552 5550 5547 5545 5543 5540 5538 5537 5536 5534 5533 5531 5530 5528 5527 5528 5528 5528 5529 5530 5533 5535 5538 5540 5544 5546 5549 5553 5557 5561 5564 5567 5569 5572 5577 5584 5592 5596 5597
5553 5555 5557 5559 5562 5566 5568 5570 5572 5574 5576 5577 5580 5582 5583 5583 5584 5585 5586 5588 5589 5590 5589 5587 5587 5587 5586 5586 5585 5583 5582 5580 5579 5577 5574 5572 5569 5567 5565 5563 5561 5558 5556 5553 5550 5547 5544 5542 5540 5538 5535 5533 5530 5528 5526 5525 5523 5522 5521 5519 5518 5518 5518 5518 5518 5520 5522 5525 5527 5530 5533 5535 5538 5542 5545 5550 5554 5557 5559 5563 5570 5578 5583 5586 5587
5551 5553 5555 5556 5558 5561 5563 5565 5568 5569 5571 5573 5575 5576 5577 5578 5579 5580 5582 5584 5585 5584 5583 5582 5582 5582 5581 5580 5579 5578 5577 5575 5573 5571 5569 5566 5564 5561 5559 5557 5555 5552 5549 5546 5543 5540 5538 5536 5533 5531 5528 5525 5522 5519 5517 5515 5513 5512 5511 5510 5509 5509 5509 5509 5509 5511 5513 5515 5517 5519 5522 5524 5527 5531 5535 5539 5544 5547 5551 5557 5564 5569 5573 5575 5578
5548 5550 5552 5553 5554 5556 5558 5560 5563 5564 5565 5568 5570 5571 5572 5573 5575 5577 5579 5581 5580 5578 5578 5578 5578 5577 5576 5575 5574 5573 5571 5570 5568 5565 5563 5561 5559 5556 5554 5551 5549 5546 5543 5540 5537 5534 5531 5529 5526 5524 5521 5517 5513 5510 5508 5506 5505 5504 5503 5502 5501 5501 5501 5500 5501 5502 5504 5506 5508 5510 5512 5514 5517 5521 5525 5529 5534 5538 5543 5550 5555 5560 5563 5566 5569
5545 5546 5547 5547 5549 5551 5553 5556 5558 5560 5561 5563 5565 5566 5567 5570 5572 5574 5576 5576 5574 5574 5574 5574 5573 5573 5572 5570 5569 5568 5566 5564 5562 5560 5558 5556 5554 5551 5548 5546 5543 5539 5536 5533 5530 5527 5524 5522 5519 5517 5514 5510 5506 5503 5501 5500 5499 5498 5497 5496 5495 5495 5494 5493 5493 5495 5497 5498 5500 5502 5504 5506 5509 5513 5516 5521 5525 5530 5536 5541 5546 5551 5554 5558 5563
5540 5541 5542 5542 5544 5546 5549 5551 5553 5555 5558 5559 5561 5562 5564 5567 5569 5571 5571 5571 5570 5570 5570 5569 5569 5568 5567 5565 5564 5562 5560 5558 5557 5555 5553 5551 5549 5546 5543 5540 5537 5533 5530 5527 5524 5521 5518 5515 5513 5510 5507 5503 5500 5497 5496 5495 5494 5493 5492 5491 5490 5490 5489 5488 5487 5488 5489 5490 5492 5494 5496 5499 5502 5506 5510 5514 5519 5523 5528 5533 5538 5543 5548 5553 5559
5536 5537 5538 5540 5542 5543 5545 5547 5549 5551 5554 5555 5557 5560 5562 5564 5566 5567 5567 5566 5567 5567 5566 5566 5565 5564 5562 5560 5559 5557 5555 5553 5552 5550 5548 5546 5544 5540 5537 5534 5531 5528 5524 5521 5518 5515 5512 5509 5506 5503 5499 5497 5494 5492 5491 5491 5489 5488 5487 5486 5485 5485 5484 5482 5482 5482 5483 5484 5486 5488 5490 5493 5496 5500 5504 5508 5513 5517 5522 5528 5533 5538 5543 5549 5555
5534 5535 5536 5538 5540 5541 5543 5545 5547 5549 5551 5553 5555 5557 5559 5561 5563 5563 5563 5563 5563 5563 5563 5562 5561 5559 5557 5555 5554 5552 5550 5549 5547 5546 5544 5542 5539 5535 5531 5528 5525 5522 5519 5516 5513 5510 5506 5503 5500 5496 5493 5491 5489 5487 5486 5485 5484 5483 5482 5481 5480 5480 5478 5477 5476 5476 5477 5479 5481 5483 5486 5488 5491 5495 5499 5503 5508 5513 5518 5524 5529 5534 5539 5545 5550
5532 5533 5535 5537 5538 5540 5541 5543 5545 5547 5549 5550 5552 5554 5557 5559 5559 5559 5560 5559 5559 5559 5559 5557 5555 5554 5552 5551 5550 5548 5546 5545 5543 5541 5539 5537 5534 5530 5526 5522 5519 5516 5513 5510 5508 5505 5501 5497 5494 5490 5488 5486 5485 5483 5481 5480 5479 5477 5476 5475 5474 5474 5473 5472 5471 5471 5472 5474 5476 5479 5482 5485 5488 5491 5495 5500 5504 5509 5514 5520 5525 5530 5535 5540 5545
5530 5531 5533 5535 5536 5538 5540 5541 5543 5545 5547 5548 5550 5552 5555 5556 5556 5556 5556 5556 5556 5555 5554 5552 5550 5549 5548 5547 5546 5544 5543 5541 5539 5537 5535 5532 5529 5526 5522 5518 5514 5510 5507 5505 5502 5499 5495 5491 5488 5486 5483 5481 5481 5480 5478 5476 5474 5472 5471 5470 5469 5468 5468 5467 5467 5467 5468 5470 5473 5476 5479 5482 5485 5488 5492 5496 5501 5505 5510 5516 5521 5526 5531 5535 5540
5529 5530 5531 5533 5534 5536 5538 5539 5541 5542 5544 5546 5547 5549 5551 5552 5552 5553 5553 5552 5552 5551 5549 5548 5547 5546 5545 5544 5542 5541 5539 5537 5535 5533 5530 5527 5525 5521 5518 5514 5510 5506 5503 5500 5497 5494 5490 5485 5483 5481 5479 5477 5476 5476 5475 5473 5470 5468 5466 5465 5464 5464 5463 5462 5462 5463 5464 5466 5470 5473 5476 5479 5482 5485 5489 5493 5497 5502 5506 5511 5516 5521 5526 5530 5535